Weather History for KBVO - August, 2013

Change the Weather History Date:

Tuesday, August 6, 2013

  Actual Average Record
Temperature  
Mean Temperature 84 °F -  
Max Temperature 95 °F 94 °F 109 °F (1956)
Min Temperature 73 °F 68 °F 56 °F (1957)
Cooling Degree Days 19    
Growing Degree Days 34 (Base 50)    
Moisture  
Dew Point 74 °F    
Average Humidity 79    
Maximum Humidity 100    
Minimum Humidity 54    
Precipitation  
Precipitation 0.00 in - - ()
Sea Level Pressure  
Sea Level Pressure 29.81 in    
Wind  
Wind Speed 4 mph (SSE)    
Max Wind Speed 8 mph    
Max Gust Speed -    
Visibility 10 miles    
Events Rain , Thunderstorm    
Averages and records for this station are not official NWS values.
T = Trace of Precipitation, MM = Missing Value Source: NWS Daily Summary

Daily Weather History Graph

Daily Weather History Graph

Search for Another Location

Airport or City:

Trip Planner

Search our weather history database for the weather conditions in past years. The results will help you decide how hot, cold, wet, or windy it might be!

Date:

Astronomy

Aug. 06, 2013 Rise Set
Actual Time 6:34 AM CDT 8:25 PM CDT
Civil Twilight 6:05 AM CDT 8:53 PM CDT
Nautical Twilight 5:31 AM CDT 9:27 PM CDT
Astronomical Twilight 4:55 AM CDT 10:03 PM CDT
Moon 6:24 AM CDT (8/6) 8:02 PM CDT (8/6)
Length of Visible Light 14h 47m
Length of Day
13h 51m
Waning Crescent, 0% of the Moon is Illuminated
Aug 6
Waning Crescent
Aug 6
New
Aug 14
First Quarter
Aug 20
Full
Aug 28
Last Quarter

Hourly Weather History & Observations

Time (CDT) Temp. Heat Index Dew Point Humidity Pressure Visibility Wind Dir Wind Speed Gust Speed Precip Events Conditions
12:53 AM 80.1 °F 83.6 °F 71.1 °F 74% 29.87 in 10.0 mi Variable 6.9 mph - N/A   Overcast
1:02 AM 77.0 °F - 69.8 °F 78% 29.92 in 10.0 mi Variable 4.6 mph - N/A Thunderstorm Mostly Cloudy
1:53 AM 73.9 °F - 71.1 °F 91% 29.86 in 10.0 mi Calm Calm - N/A   Mostly Cloudy
2:53 AM 73.9 °F - 72.0 °F 93% 29.85 in 10.0 mi Calm Calm - N/A   Scattered Clouds
3:53 AM 73.9 °F - 72.0 °F 93% 29.86 in 10.0 mi Calm Calm - N/A   Scattered Clouds
4:51 AM 73.4 °F - 71.6 °F 94% 29.85 in 10.0 mi Calm Calm - 0.00 in Rain , Thunderstorm Light Rain
4:53 AM 73.9 °F - 72.0 °F 93% 29.82 in 10.0 mi Calm Calm - 0.00 in Rain , Thunderstorm Light Rain
5:06 AM 73.4 °F - 71.6 °F 94% 29.86 in 10.0 mi Calm Calm - N/A   Partly Cloudy
5:53 AM 73.0 °F - 73.0 °F 100% 29.81 in 10.0 mi SSE 4.6 mph - N/A   Clear
6:53 AM 73.9 °F - 73.0 °F 97% 29.83 in 10.0 mi Calm Calm - N/A   Partly Cloudy
7:53 AM 77.0 °F - 73.9 °F 90% 29.82 in 10.0 mi Variable 4.6 mph - N/A   Clear
8:53 AM 78.1 °F - 73.9 °F 87% 29.83 in 10.0 mi SE 6.9 mph - N/A   Clear
9:53 AM 82.9 °F 90.2 °F 75.0 °F 77% 29.82 in 10.0 mi SE 6.9 mph - N/A   Clear
10:53 AM 84.0 °F 91.2 °F 73.9 °F 72% 29.83 in 10.0 mi SSE 6.9 mph - N/A   Clear
11:53 AM 86.0 °F 95.1 °F 75.0 °F 70% 29.82 in 10.0 mi SE 4.6 mph - N/A   Scattered Clouds
12:53 PM 90.0 °F 101.3 °F 75.9 °F 63% 29.81 in 10.0 mi Variable 6.9 mph - N/A   Clear
2:53 PM 93.0 °F 104.6 °F 75.0 °F 56% 29.80 in 10.0 mi SSE 6.9 mph - N/A   Clear
3:53 PM 93.9 °F 105.4 °F 75.0 °F 54% 29.78 in 10.0 mi SSE 6.9 mph - N/A   Clear
4:53 PM 95.0 °F 108.2 °F 75.9 °F 54% 29.77 in 10.0 mi ESE 6.9 mph - N/A   Clear
5:53 PM 93.9 °F 108.4 °F 77.0 °F 58% 29.75 in 10.0 mi SE 8.1 mph - N/A   Clear
6:53 PM 93.0 °F 108.9 °F 78.1 °F 62% 29.74 in 10.0 mi SSE 6.9 mph - N/A   Clear
7:53 PM 87.1 °F 103.2 °F 80.1 °F 80% 29.74 in 10.0 mi SW 3.5 mph - N/A   Clear
8:53 PM 84.9 °F 94.1 °F 75.9 °F 74% 29.73 in 10.0 mi South 3.5 mph - N/A   Clear
9:53 PM 84.0 °F 91.9 °F 75.0 °F 74% 29.76 in 10.0 mi SSW 3.5 mph - N/A   Clear
10:53 PM 82.9 °F 90.2 °F 75.0 °F 77% 29.76 in 10.0 mi South 3.5 mph - N/A   Clear
11:53 PM 79.0 °F - 75.9 °F 90% 29.78 in 10.0 mi Calm Calm - N/A   Clear